FDX5062 KMEM-KSGF

Flight info

Callsign FDX5062
Flight time 0h 50m
Altitude 30000
Route JTEEE5 ODATE
Aircraft B738/M-SDE2E3FGHIRWXY/LB1

Departure

Time 2026-05-04 21:36
Airport Memphis International Airport (KMEM)

Arrival

Time 2026-05-04 22:27
Airport Springfield Branson National Airport (KSGF)
Time Latitude Longitude Altitude Speed Heading
2026-05-04 21:11 35.06328 -89.97612 330 ft 0 kts 270°
2026-05-04 21:27 35.06328 -89.97606 330 ft 4 kts 270°
2026-05-04 21:27 35.06327 -89.97577 330 ft 4 kts 266°
2026-05-04 21:27 35.06335 -89.97551 330 ft 4 kts 209°
2026-05-04 21:28 35.06358 -89.97545 330 ft 2 kts 179°
2026-05-04 21:28 35.06364 -89.97545 330 ft 0 kts 179°
2026-05-04 21:31 35.06333 -89.97544 327 ft 7 kts 178°
2026-05-04 21:31 35.06271 -89.97542 326 ft 11 kts 179°
2026-05-04 21:32 35.06183 -89.97539 326 ft 14 kts 179°
2026-05-04 21:32 35.06080 -89.97539 326 ft 15 kts 179°
2026-05-04 21:32 35.05976 -89.97526 328 ft 15 kts 167°
2026-05-04 21:32 35.05880 -89.97499 326 ft 14 kts 167°
2026-05-04 21:33 35.05787 -89.97480 330 ft 13 kts 179°
2026-05-04 21:33 35.05695 -89.97481 329 ft 13 kts 181°
2026-05-04 21:33 35.05606 -89.97483 325 ft 13 kts 180°
2026-05-04 21:33 35.05521 -89.97485 328 ft 9 kts 190°
2026-05-04 21:34 35.05502 -89.97494 328 ft 0 kts 203°
2026-05-04 21:34 35.05496 -89.97497 327 ft 2 kts 206°
2026-05-04 21:34 35.05480 -89.97510 324 ft 4 kts 216°
2026-05-04 21:34 35.05453 -89.97538 325 ft 7 kts 221°
2026-05-04 21:35 35.05427 -89.97592 324 ft 8 kts 243°
2026-05-04 21:35 35.05380 -89.97614 322 ft 8 kts 176°
2026-05-04 21:35 35.05328 -89.97611 322 ft 7 kts 177°
2026-05-04 21:35 35.05278 -89.97609 323 ft 7 kts 178°
2026-05-04 21:36 35.05229 -89.97608 320 ft 8 kts 180°
2026-05-04 21:36 35.04889 -89.97605 321 ft 94 kts 179°
2026-05-04 21:36 35.03962 -89.97590 370 ft 167 kts 182°
2026-05-04 21:36 35.02768 -89.97607 1315 ft 168 kts 185°
2026-05-04 21:37 35.01634 -89.97621 2650 ft 158 kts 182°
2026-05-04 21:37 35.00561 -89.97575 3623 ft 160 kts 179°
2026-05-04 21:37 34.99347 -89.97678 3921 ft 191 kts 204°
2026-05-04 21:37 34.98235 -89.98726 4172 ft 216 kts 221°
2026-05-04 21:38 34.96931 -89.99716 4682 ft 226 kts 206°
2026-05-04 21:38 34.95522 -90.00564 5363 ft 229 kts 213°
2026-05-04 21:38 34.94522 -90.02044 6093 ft 235 kts 248°
2026-05-04 21:38 34.94141 -90.03990 6879 ft 238 kts 256°
2026-05-04 21:39 34.94056 -90.06032 7589 ft 244 kts 268°
2026-05-04 21:39 34.94106 -90.08116 8288 ft 247 kts 266°
2026-05-04 21:39 34.94152 -90.10226 8935 ft 253 kts 272°
2026-05-04 21:39 34.94745 -90.12275 9617 ft 261 kts 294°
2026-05-04 21:40 34.95595 -90.14230 10350 ft 261 kts 291°
2026-05-04 21:40 34.96390 -90.16225 11029 ft 263 kts 291°
2026-05-04 21:40 34.97254 -90.18202 11680 ft 269 kts 302°
2026-05-04 21:40 34.98756 -90.19685 12102 ft 298 kts 333°
2026-05-04 21:41 35.00874 -90.20144 12341 ft 331 kts 355°
2026-05-04 21:41 35.03264 -90.20183 12535 ft 354 kts 354°
2026-05-04 21:41 35.05806 -90.20292 12725 ft 376 kts 354°
2026-05-04 21:41 35.08461 -90.20412 13210 ft 387 kts 356°
2026-05-04 21:42 35.11159 -90.19990 13915 ft 396 kts 11°
2026-05-04 21:42 35.13817 -90.19086 14697 ft 398 kts 12°
2026-05-04 21:42 35.16491 -90.18176 15404 ft 400 kts 12°
2026-05-04 21:42 35.19188 -90.17286 16100 ft 404 kts 11°
2026-05-04 21:43 35.21912 -90.16413 16799 ft 404 kts 11°
2026-05-04 21:43 35.24642 -90.15558 17436 ft 407 kts 10°
2026-05-04 21:43 35.27405 -90.14695 18063 ft 410 kts 10°
2026-05-04 21:43 35.30137 -90.13845 18717 ft 412 kts 10°
2026-05-04 21:44 35.32922 -90.12979 19339 ft 414 kts 10°
2026-05-04 21:44 35.35728 -90.12109 19935 ft 417 kts 10°
2026-05-04 21:44 35.38547 -90.11235 20505 ft 420 kts 10°
2026-05-04 21:44 35.41386 -90.10354 21068 ft 422 kts 10°
2026-05-04 21:45 35.44237 -90.09467 21613 ft 424 kts 10°
2026-05-04 21:45 35.47104 -90.08575 22137 ft 426 kts 10°
2026-05-04 21:45 35.49945 -90.07689 22625 ft 428 kts
2026-05-04 21:45 35.52839 -90.06787 23109 ft 430 kts 10°
2026-05-04 21:46 35.55753 -90.05877 23574 ft 433 kts 10°
2026-05-04 21:46 35.58677 -90.04965 24018 ft 435 kts
2026-05-04 21:46 35.61618 -90.04050 24455 ft 437 kts
2026-05-04 21:46 35.64602 -90.03492 24810 ft 433 kts 355°
2026-05-04 21:47 35.67585 -90.03867 25231 ft 430 kts 348°
2026-05-04 21:47 35.70576 -90.04285 25621 ft 434 kts 351°
2026-05-04 21:47 35.73605 -90.04556 25950 ft 438 kts 352°
2026-05-04 21:47 35.76645 -90.04855 26284 ft 439 kts 347°
2026-05-04 21:48 35.79463 -90.06011 26598 ft 431 kts 326°
2026-05-04 21:48 35.81731 -90.08353 27143 ft 422 kts 310°
2026-05-04 21:48 35.83530 -90.11169 27717 ft 417 kts 300°
2026-05-04 21:48 35.84883 -90.14321 28171 ft 415 kts 294°
2026-05-04 21:49 35.86090 -90.17554 28615 ft 415 kts 294°
2026-05-04 21:49 35.87339 -90.20750 29103 ft 413 kts 296°
2026-05-04 21:49 35.88675 -90.23865 29619 ft 410 kts 297°
2026-05-04 21:49 35.90091 -90.26909 29868 ft 411 kts 299°
2026-05-04 21:50 35.91580 -90.29926 29870 ft 411 kts 300°
2026-05-04 21:50 35.94628 -90.35815 29873 ft 409 kts 301°
2026-05-04 21:51 35.97733 -90.41690 29887 ft 408 kts 301°
2026-05-04 21:51 36.00834 -90.47555 29882 ft 408 kts 301°
2026-05-04 21:52 36.03931 -90.53428 29880 ft 407 kts 301°
2026-05-04 21:52 36.07015 -90.59299 29879 ft 408 kts 301°
2026-05-04 21:53 36.10081 -90.65143 29881 ft 408 kts 301°
2026-05-04 21:53 36.13169 -90.71038 29875 ft 408 kts 301°
2026-05-04 21:54 36.16252 -90.76938 29861 ft 408 kts 301°
2026-05-04 21:54 36.19328 -90.82832 29861 ft 408 kts 301°
2026-05-04 21:55 36.22379 -90.88690 29860 ft 407 kts 301°
2026-05-04 21:55 36.25445 -90.94584 29862 ft 407 kts 301°
2026-05-04 21:56 36.28505 -91.00476 29861 ft 406 kts 301°
2026-05-04 21:56 36.31556 -91.06365 29859 ft 406 kts 301°
2026-05-04 21:57 36.34604 -91.12255 29861 ft 405 kts 301°
2026-05-04 21:57 36.37620 -91.18098 29868 ft 405 kts 301°
2026-05-04 21:58 36.40656 -91.23986 29855 ft 405 kts 301°
2026-05-04 21:58 36.43689 -91.29877 29849 ft 405 kts 301°
2026-05-04 21:59 36.46721 -91.35780 29851 ft 405 kts 301°
2026-05-04 21:59 36.49728 -91.41644 29854 ft 405 kts 301°
2026-05-04 22:00 36.52752 -91.47550 29835 ft 405 kts 301°
2026-05-04 22:00 36.55775 -91.53463 29825 ft 405 kts 301°
2026-05-04 22:01 36.58794 -91.59382 29834 ft 405 kts 301°
2026-05-04 22:01 36.61749 -91.65173 29467 ft 389 kts 301°
2026-05-04 22:01 36.63181 -91.67989 29043 ft 383 kts 301°
2026-05-04 22:02 36.64595 -91.70771 28647 ft 378 kts 301°
2026-05-04 22:02 36.65992 -91.73523 28173 ft 374 kts 301°
2026-05-04 22:02 36.67359 -91.76219 27704 ft 371 kts 301°
2026-05-04 22:02 36.68732 -91.78927 27248 ft 368 kts 301°
2026-05-04 22:03 36.70096 -91.81619 26779 ft 365 kts 301°
2026-05-04 22:03 36.71444 -91.84284 26315 ft 363 kts 301°
2026-05-04 22:03 36.72785 -91.86935 25866 ft 360 kts 301°
2026-05-04 22:03 36.74111 -91.89559 25415 ft 357 kts 301°
2026-05-04 22:04 36.75414 -91.92136 24969 ft 354 kts 301°
2026-05-04 22:04 36.76722 -91.94727 24531 ft 351 kts 301°
2026-05-04 22:04 36.78017 -91.97296 24090 ft 349 kts 301°
2026-05-04 22:04 36.79304 -91.99852 23649 ft 347 kts 301°
2026-05-04 22:05 36.80584 -92.02395 23211 ft 344 kts 301°
2026-05-04 22:05 36.81851 -92.04914 22782 ft 342 kts 301°
2026-05-04 22:05 36.83112 -92.07416 22355 ft 339 kts 301°
2026-05-04 22:05 36.84365 -92.09899 21932 ft 337 kts 301°
2026-05-04 22:06 36.85605 -92.12372 21514 ft 335 kts 301°
2026-05-04 22:06 36.86821 -92.14801 21096 ft 333 kts 300°
2026-05-04 22:06 36.88059 -92.17274 20665 ft 331 kts 300°
2026-05-04 22:06 36.89277 -92.19703 20252 ft 329 kts 300°
2026-05-04 22:07 36.90468 -92.22086 19848 ft 326 kts 300°
2026-05-04 22:07 36.91666 -92.24481 19435 ft 324 kts 300°
2026-05-04 22:07 36.92856 -92.26864 19026 ft 322 kts 300°
2026-05-04 22:07 36.94039 -92.29233 18620 ft 320 kts 300°
2026-05-04 22:08 36.95212 -92.31585 18220 ft 318 kts 300°
2026-05-04 22:08 36.96378 -92.33921 17821 ft 316 kts 300°
2026-05-04 22:08 36.97536 -92.36246 17426 ft 314 kts 300°
2026-05-04 22:08 36.98685 -92.38553 17020 ft 312 kts 300°
2026-05-04 22:09 36.99827 -92.40848 16639 ft 309 kts 300°
2026-05-04 22:09 37.00946 -92.43096 16241 ft 308 kts 300°
2026-05-04 22:09 37.02074 -92.45366 15853 ft 306 kts 300°
2026-05-04 22:09 37.03196 -92.47624 15470 ft 305 kts 299°
2026-05-04 22:10 37.04310 -92.49867 15060 ft 299 kts 299°
2026-05-04 22:10 37.05391 -92.52048 14692 ft 293 kts 299°
2026-05-04 22:10 37.06458 -92.54201 14309 ft 289 kts 299°
2026-05-04 22:10 37.07523 -92.56351 13958 ft 294 kts 298°
2026-05-04 22:11 37.08629 -92.58591 13606 ft 311 kts 299°
2026-05-04 22:11 37.09776 -92.60914 13172 ft 313 kts 299°
2026-05-04 22:11 37.10893 -92.63170 12748 ft 304 kts 298°
2026-05-04 22:11 37.11991 -92.65386 12360 ft 295 kts 298°
2026-05-04 22:12 37.13051 -92.67527 12183 ft 279 kts 298°
2026-05-04 22:12 37.14029 -92.69500 12083 ft 256 kts 298°
2026-05-04 22:12 37.14934 -92.71327 11936 ft 237 kts 297°
2026-05-04 22:12 37.15770 -92.73014 11806 ft 219 kts 297°
2026-05-04 22:13 37.16548 -92.74592 11596 ft 208 kts 297°
2026-05-04 22:13 37.17304 -92.76130 11156 ft 208 kts 296°
2026-05-04 22:13 37.18062 -92.77677 10694 ft 208 kts 296°
2026-05-04 22:13 37.18814 -92.79210 10250 ft 208 kts 295°
2026-05-04 22:14 37.19552 -92.80703 10150 ft 199 kts 295°
2026-05-04 22:14 37.20281 -92.82190 10069 ft 204 kts 295°
2026-05-04 22:14 37.21034 -92.83737 9971 ft 211 kts 295°
2026-05-04 22:14 37.21810 -92.85321 9858 ft 213 kts 295°
2026-05-04 22:15 37.22584 -92.86894 9682 ft 212 kts 295°
2026-05-04 22:15 37.23355 -92.88465 9462 ft 210 kts 295°
2026-05-04 22:15 37.24117 -92.90020 9232 ft 209 kts 294°
2026-05-04 22:15 37.24868 -92.91557 8998 ft 209 kts 294°
2026-05-04 22:16 37.25632 -92.93114 8782 ft 211 kts 294°
2026-05-04 22:16 37.26406 -92.94697 8539 ft 215 kts 294°
2026-05-04 22:16 37.27184 -92.96292 8293 ft 213 kts 294°
2026-05-04 22:16 37.27960 -92.97871 8032 ft 211 kts 294°
2026-05-04 22:17 37.28722 -92.99418 7779 ft 205 kts 294°
2026-05-04 22:17 37.29463 -93.00931 7559 ft 203 kts 294°
2026-05-04 22:17 37.30201 -93.02444 7324 ft 203 kts 293°
2026-05-04 22:17 37.30943 -93.03958 7099 ft 203 kts 294°
2026-05-04 22:18 37.31675 -93.05470 6873 ft 202 kts 293°
2026-05-04 22:18 37.32398 -93.06967 6635 ft 203 kts 293°
2026-05-04 22:18 37.33135 -93.08478 6403 ft 203 kts 293°
2026-05-04 22:18 37.33876 -93.09995 6167 ft 203 kts 293°
2026-05-04 22:19 37.34615 -93.11502 5945 ft 201 kts 293°
2026-05-04 22:19 37.35341 -93.12993 5735 ft 199 kts 292°
2026-05-04 22:19 37.36060 -93.14474 5538 ft 197 kts 294°
2026-05-04 22:19 37.36777 -93.15940 5309 ft 197 kts 293°
2026-05-04 22:20 37.37490 -93.17398 5125 ft 195 kts 293°
2026-05-04 22:20 37.38186 -93.18833 4944 ft 193 kts 293°
2026-05-04 22:20 37.38879 -93.20257 4859 ft 192 kts 293°
2026-05-04 22:20 37.39580 -93.21706 4793 ft 195 kts 293°
2026-05-04 22:21 37.40270 -93.23122 4685 ft 184 kts 293°
2026-05-04 22:21 37.40925 -93.24457 4590 ft 175 kts 293°
2026-05-04 22:21 37.41547 -93.25744 4526 ft 171 kts 292°
2026-05-04 22:21 37.42159 -93.27032 4497 ft 174 kts 290°
2026-05-04 22:22 37.42464 -93.28480 4054 ft 174 kts 255°
2026-05-04 22:22 37.41793 -93.29650 3636 ft 169 kts 216°
2026-05-04 22:22 37.40766 -93.30346 3221 ft 171 kts 204°
2026-05-04 22:22 37.39690 -93.30864 3099 ft 162 kts 203°
2026-05-04 22:23 37.38646 -93.31381 3025 ft 162 kts 204°
2026-05-04 22:23 37.37589 -93.31909 2988 ft 162 kts 205°
2026-05-04 22:23 37.36553 -93.32427 2995 ft 158 kts 206°
2026-05-04 22:23 37.35544 -93.32929 3004 ft 156 kts 204°
2026-05-04 22:24 37.34526 -93.33439 2997 ft 159 kts 205°
2026-05-04 22:24 37.33500 -93.33946 3008 ft 156 kts 204°
2026-05-04 22:24 37.32483 -93.34444 2800 ft 154 kts 205°
2026-05-04 22:24 37.31493 -93.34952 2612 ft 154 kts 204°
2026-05-04 22:25 37.30531 -93.35432 2418 ft 145 kts 201°
2026-05-04 22:25 37.29617 -93.35889 2276 ft 139 kts 202°
2026-05-04 22:25 37.28687 -93.36326 2046 ft 141 kts 203°
2026-05-04 22:25 37.27815 -93.36830 1863 ft 135 kts 202°
2026-05-04 22:26 37.26901 -93.37226 1803 ft 143 kts 199°
2026-05-04 22:26 37.26022 -93.37705 1442 ft 134 kts 201°
2026-05-04 22:26 37.25190 -93.38103 1285 ft 122 kts 202°
2026-05-04 22:26 37.24527 -93.38440 1274 ft 74 kts 202°
2026-05-04 22:27 37.24261 -93.38571 1280 ft 15 kts 191°
2026-05-04 22:27 37.24200 -93.38521 1280 ft 9 kts 116°
2026-05-04 22:27 37.24229 -93.38456 1278 ft 9 kts 33°
2026-05-04 22:27 37.24285 -93.38417 1279 ft 9 kts 25°
2026-05-04 22:28 37.24343 -93.38386 1279 ft 9 kts 21°
2026-05-04 22:28 37.24404 -93.38355 1277 ft 11 kts 21°
2026-05-04 22:28 37.24462 -93.38398 1278 ft 11 kts 292°
2026-05-04 22:28 37.24492 -93.38490 1277 ft 12 kts 292°
2026-05-04 22:29 37.24539 -93.38569 1275 ft 12 kts 346°
2026-05-04 22:29 37.24618 -93.38549 1274 ft 13 kts 19°
2026-05-04 22:29 37.24706 -93.38505 1274 ft 14 kts 20°
2026-05-04 22:29 37.24794 -93.38461 1274 ft 13 kts 22°
2026-05-04 22:30 37.24875 -93.38419 1273 ft 12 kts 22°
2026-05-04 22:30 37.24954 -93.38381 1272 ft 12 kts 19°
2026-05-04 22:30 37.25031 -93.38351 1273 ft 11 kts 17°
2026-05-04 22:30 37.25100 -93.38313 1273 ft 11 kts 24°
2026-05-04 22:31 37.25170 -93.38282 1272 ft 11 kts
2026-05-04 22:31 37.25216 -93.38333 1273 ft 5 kts 294°
2026-05-04 22:31 37.25216 -93.38334 1273 ft 0 kts 294°
2026-05-04 22:32 37.25120 -93.38388 1273 ft 0 kts 292°